Weather History for KDMO - October, 2012

Change the Weather History Date:

Tuesday, October 30, 2012

  Actual Average Record
Temperature  
Mean Temperature 45 °F 54 °F  
Max Temperature 57 °F 64 °F 90 °F (1950)
Min Temperature 32 °F 44 °F 21 °F (1980)
Degree Days  
Heating Degree Days 20 12  
Month to date heating degree days 302 233  
Since 1 July heating degree days 342 278  
Cooling Degree Days 0 1  
Month to date cooling degree days 27 40  
Year to date cooling degree days 2107 1490  
Moisture  
Dew Point 28 °F    
Average Humidity 56    
Maximum Humidity 82    
Minimum Humidity 30    
Precipitation  
Precipitation 0.00 in 0.09 in 1.93 in (1941)
Month to date precipitation 5.74 3.56  
Year to date precipitation 27.92 35.61  
Sea Level Pressure  
Sea Level Pressure 30.07 in    
Wind  
Wind Speed 4 mph (North)    
Max Wind Speed 10 mph    
Max Gust Speed 14 mph    
Visibility 10 miles    
Events      
T = Trace of Precipitation, MM = Missing Value Source: NWS Daily Summary

Daily Weather History Graph

Daily Weather History Graph

Search for Another Location

Airport or City:

Trip Planner

Search our weather history database for the weather conditions in past years. The results will help you decide how hot, cold, wet, or windy it might be!

Date:

Astronomy

Oct. 30, 2012 Rise Set
Actual Time 7:37 AM CDT 6:14 PM CDT
Civil Twilight 7:10 AM CDT 6:41 PM CDT
Nautical Twilight 6:39 AM CDT 7:12 PM CDT
Astronomical Twilight 6:08 AM CDT 7:43 PM CDT
Moon 6:45 PM CDT (10/30) 8:24 AM CDT (10/30)
Length of Visible Light 11h 31m
Length of Day
10h 36m
Full, 99% of the Moon is Illuminated
Oct 30
Full
Nov 6
Last Quarter
Nov 13
New
Nov 20
First Quarter
Nov 28
Full

Hourly Weather History & Observations

Time (CDT) Temp. Windchill Dew Point Humidity Pressure Visibility Wind Dir Wind Speed Gust Speed Precip Events Conditions
12:53 AM 37.0 °F 33.3 °F 30.0 °F 76% 30.16 in 10.0 mi East 4.6 mph - N/A   Clear
2:53 AM 37.0 °F - 30.0 °F 76% 30.15 in 10.0 mi Calm Calm - N/A   Clear
3:53 AM 36.0 °F - 28.9 °F 76% 30.13 in 10.0 mi Calm Calm - N/A   Clear
4:53 AM 37.0 °F - 28.9 °F 73% 30.13 in 10.0 mi Calm Calm - N/A   Clear
6:53 AM 36.0 °F - 28.0 °F 73% 30.12 in 10.0 mi Calm Calm - N/A   Clear
7:53 AM 35.1 °F - 28.0 °F 76% 30.12 in 10.0 mi Calm Calm - N/A   Clear
8:53 AM 37.9 °F - 32.0 °F 79% 30.12 in 10.0 mi Calm Calm - N/A   Clear
9:53 AM 45.0 °F 41.8 °F 32.0 °F 60% 30.11 in 10.0 mi East 5.8 mph - N/A   Clear
10:53 AM 48.9 °F - 30.0 °F 48% 30.10 in 10.0 mi East 9.2 mph - N/A   Clear
11:53 AM 51.1 °F - 28.9 °F 43% 30.09 in 10.0 mi Variable 5.8 mph - N/A   Clear
12:53 PM 54.0 °F - 27.0 °F 35% 30.07 in 10.0 mi Calm Calm - N/A   Clear
1:53 PM 55.9 °F - 25.0 °F 30% 30.05 in 10.0 mi Calm Calm - N/A   Clear
2:53 PM 55.0 °F - 26.1 °F 33% 30.02 in 10.0 mi North 4.6 mph - N/A   Mostly Cloudy
3:53 PM 55.0 °F - 28.0 °F 35% 30.01 in 10.0 mi NNE 5.8 mph - N/A   Mostly Cloudy
4:53 PM 54.0 °F - 26.1 °F 34% 30.00 in 10.0 mi North 4.6 mph - N/A   Scattered Clouds
5:53 PM 52.0 °F - 28.0 °F 40% 30.01 in 10.0 mi NNW 4.6 mph - N/A   Clear
7:53 PM 48.9 °F - 30.0 °F 48% 30.01 in 10.0 mi NW 4.6 mph - N/A   Overcast
8:53 PM 46.9 °F - 28.9 °F 50% 30.01 in 10.0 mi NW 6.9 mph - N/A   Overcast
9:53 PM 44.1 °F 40.8 °F 27.0 °F 51% 30.02 in 10.0 mi WNW 5.8 mph - N/A   Clear
10:53 PM 43.0 °F 40.3 °F 26.1 °F 51% 30.01 in 10.0 mi NW 4.6 mph - N/A   Partly Cloudy
11:53 PM 43.0 °F 40.3 °F 27.0 °F 53% 30.02 in 10.0 mi NW 4.6 mph - N/A   Clear